Zurück zum Katalog

FORMOSAT 3B

AktivWetterLEO
NORAD 29048·PAYLOAD·🇹🇼 Taiwan

Gestartet Apr 15, 2006 von Vandenberg Space Force Base

Loading…

Nächste Überflüge (nächste 24 Stunden)

TLE

AktuellSource: Space-Track

Epoche: Sep 14, 2026, 08:07 UTC

1 29048U 06011B   26257.33850037  .00000265  00000-0  11458-3 0  9997
2 29048  71.9668  36.8923 0041091  44.3660 316.0757 14.31444839 69534

Verfolge FORMOSAT 3B in Echtzeit mit AllMySat

Download on the App Store